www.pogodaiklimat.ru

Архив погоды в Ширазе (Иран)

Время
(UTC), дата
18 12.06
21 12.06
00 13.06
03 13.06
06 13.06
09 13.06
12 13.06
15 13.06
18 13.06
21 13.06
00 14.06
03 14.06
06 14.06
09 14.06
12 14.06
15 14.06
18 14.06
21 14.06
00 15.06
03 15.06
06 15.06
09 15.06
12 15.06
15 15.06
18 15.06
21 15.06
00 16.06
03 16.06
06 16.06
09 16.06
12 16.06
15 16.06
18 16.06
21 16.06
00 17.06
03 17.06
06 17.06
09 17.06
12 17.06
15 17.06
18 17.06
21 17.06
00 18.06
03 18.06
06 18.06
09 18.06
12 18.06
15 18.06
18 18.06
21 18.06
00 19.06
03 19.06
06 19.06
09 19.06
12 19.06
15 19.06
Ветер
(напр.,м/с)
Видим. Явления Облачность Т
(С)
Тd
(С)
f
(%)
Тe
(С)
Тes
(С)
Комфортность P
(гПа)
Po
(гПа)
Тmin
(С)
Tmax
(С)
R
(мм)
R24
(мм)
S
(см)
СЗ 2 10 км ясно +28.0 +2.3 19 +26 +26 жарко 1001.5 849.6
штиль 0 10 км ясно +24.8 +1.9 22 +24 +24 комфорт 1000.5 849.0
штиль 0 10 км ясно +19.2 +1.2 30 +19 +19 1001.4 848.7
штиль 0 10 км ясно +21.2 +5.1 35 +22 +24 комфорт 1001.9 849.2 +16.2 +32.8
З 2 10 км ясно +30.2 -0.8 13 +27 +42 жарко 1000.7 848.9
ЮЗ 2 10 км ясно +33.6 -4.0 9 +30 +51 опасность солнечного удара 999.0 847.5
ЮЗ 2 10 км ясно +34.2 -0.3 11 +31 +41 жарко 997.7 845.3
З 4 10 км ясно +31.6 +1.1 14 +29 +29 жарко 997.2 844.8 +15.6 +32.6 666
З 3 10 км ясно +27.8 +5.1 23 +27 +27 жарко 996.9 845.9
штиль 0 10 км ясно +26.4 +3.2 22 +25 +25 комфорт 995.9 845.4
штиль 0 10 км ясно +19.0 +3.3 35 +19 +19 997.6 845.3
штиль 0 10 км ясно +21.8 +6.1 36 +22 +25 комфорт 998.7 846.2 +16.2 +31.6
штиль 0 10 км ясно +30.4 +6.4 22 +29 +50 жарко 997.2 846.2
ЮВ 2 8000 м мгла ясно +34.4 +1.0 12 +31 +53 опасность солнечного удара 995.4 845.1
З 2 10 км 1/1 1200 м
[Cu hum]
+35.4 +3.4 14 +32 +42 жарко 995.0 843.4
ЮЗ 2 10 км 3/3 1200 м
[Cu hum]
+33.0 +3.6 16 +30 +30 жарко 994.8 843.3 +21.2 +36.6
СЗ 2 10 км ясно +28.4 +7.3 26 +28 +28 жарко 995.6 845.0
С 3 10 км ясно +25.8 +7.7 32 +26 +26 жарко 994.9 844.8
Ю 2 10 км ясно +21.0 +5.4 36 +22 +22 комфорт 995.9 844.7
штиль 0 10 км ясно +22.0 +7.8 40 +23 +26 комфорт 997.6 845.9 +19.0 +33.0
штиль 0 8000 м мгла ясно +30.8 +7.7 24 +30 +50 жарко 996.8 846.2
ЮВ 4 8000 м мгла 4/4 1050 м
[Cu med, cong]
+34.4 +5.8 17 +32 +41 жарко 995.6 845.3
ЮЗ 9 7000 м пыльный позёмок 5/5 900 м
[Cb calv]
+35.4 +6.0 16 +33 +33 жарко 995.7 844.5
ЮЗ 4 10 км 4/3 1200 м
[Sc diur, vesp Ci fib]
+32.4 +4.3 17 +30 +30 жарко 996.6 844.8 +22.0 +36.2
СЗ 2 10 км 1/1 1200 м
[Sc diur, vesp]
+28.6 +5.4 23 +27 +27 жарко 997.4 846.6
С 2 10 км ясно +24.6 +4.1 26 +24 +24 комфорт 997.9 846.9
ЮЗ 2 10 км ясно +19.4 +3.9 36 +20 +20 999.5 847.3
штиль 0 10 км ясно +21.8 +6.6 37 +23 +25 комфорт 1001.6 849.0 +18.0 +32.6
штиль 0 10 км ясно +31.8 +6.1 20 +30 +51 опасность солнечного удара 1000.6 849.6
штиль 0 10 км 1/1 1200 м
[Cu hum]
+34.8 +4.7 15 +32 +58 опасность солнечного удара 999.5 848.4
штиль 0 10 км 3/3 1050 м
[Cb calv]
+36.6 +4.7 14 +34 +44 очень жарко 998.6 846.8
З 5 10 км 1/1 1200 м
[Sc diur, vesp]
+33.4 +6.2 18 +31 +31 жарко 998.8 846.9 +21.8 +36.8 666
штиль 0 10 км ясно +26.8 +5.6 26 +26 +26 жарко 1000.5 849.1 +21.8 +36.8
штиль 0 10 км ясно +26.6 +4.1 24 +26 +26 жарко 999.5 848.8
З 2 10 км ясно +23.2 +3.9 28 +23 +23 комфорт 1000.3 849.1
штиль 0 10 км ясно +23.2 +7.1 35 +24 +27 комфорт 1002.9 850.7 +19.0 +33.4 666
З 2 10 км 1/0
[Ac trans]
+33.0 +5.4 18 +31 +45 жарко 1002.6 851.1
штиль 0 10 км 1/1 1200 м
[Cu hum]
+35.8 +6.1 16 +33 +60 опасность солнечного удара 1000.6 850.0
штиль 0 10 км 3/3 1200 м
[Cu hum]
+37.2 +4.6 13 +34 +44 очень жарко 999.1 848.2
ЮЗ 4 10 км 3/3 1050 м
[Sc diur, vesp]
+34.2 +6.0 17 +32 +32 жарко 999.9 848.3 +23.2 +38.0
штиль 0 10 км 4/4 1200 м
[Sc diur, vesp]
+29.2 +6.5 24 +28 +28 жарко 1000.0 849.5
штиль 0 10 км ясно +23.6 +4.6 29 +23 +23 комфорт 1000.7 849.4
штиль 0 10 км ясно +21.6 +5.2 34 +22 +22 комфорт 1000.5 849.1
штиль 0 10 км ясно +23.8 +9.9 41 +25 +28 комфорт 1002.4 850.7 +18.8 +34.2
штиль 0 8000 м мгла ясно +33.8 +7.5 20 +32 +53 опасность солнечного удара 1001.9 851.3
Ю 2 8000 м мгла 1/1 1200 м
[Cu hum]
+36.6 +7.7 17 +35 +54 опасность солнечного удара 1001.3 850.2
З 8 8000 м мгла 5/5 1050 м
[Cu med, cong]
+37.0 +7.9 17 +35 +36 очень жарко 999.7 848.5
С 3 8000 м мгла 9/9 1050 м
[Cb calv]
+33.6 +6.0 18 +31 +31 жарко 1000.5 848.8 +23.8 +38.2
Ю 2 8000 м мгла 9/6 1050 м
[Cb calv Ac trans]
+30.0 +6.2 22 +29 +29 жарко 1000.3 850.1
штиль 0 8000 м мгла 8/4 1200 м
[Sc diur, vesp Ac trans]
+30.0 +7.8 25 +29 +29 жарко 998.7 849.4
С 2 7000 м мгла 8/4 1200 м
[Sc diur, vesp Ac trans]
+30.0 +7.1 24 +29 +29 жарко 997.5 848.5
штиль 0 8000 м мгла 5/3 1200 м
[Sc Ac trans]
+27.4 +10.6 35 +28 +30 жарко 1000.8 850.1 +25.0 +33.6 666
штиль 0 10 км ясно +33.4 +6.8 19 +31 +52 опасность солнечного удара 1000.9 850.5
ЮВ 4 10 км 4/4 1200 м
[Cu hum]
+36.0 +8.8 19 +34 +43 очень жарко 998.7 849.3 666
З 5 8000 м мгла 8/8 900 м
[Cb calv]
+33.6 +6.6 19 +32 +33 жарко 997.6 847.8
СЗ 2 10 км 8/8 900 м
[Cb calv]
+34.0 +6.2 18 +32 +32 жарко 997.0 846.8 +27.4 +37.6
Местоположение метеостанции Шираз (Иран): широта 29.53 долгота 52.53 высота над уровнем моря 1481 м.
В архиве по умолчанию представлена погода в Ширазе за последнюю неделю. Архивные данные за месяц целиком и за предыдущие месяцы, начиная с января 2011 года, Вы можете получить, выбрав интересующий диапазон дат из раскрывающегося списка и нажав кнопку "Найти!".
*Определитесь, кто Вы:
Внимание! Время в таблицах - всемирное. Для получения местного времени необходимо прибавить поправку, которая равна 3.5 ч.
Некоторые строки с данными для отдельных станций могут быть выделены курсивом. Это означает, что фактические данные отсутствуют по различным причинам, а приведенные значения являются расчетными модельными данными для данного пункта наблюдений.
Смотрите также архив погоды в соседних городах и на ближайших метеорологических станциях:
Партнеры нашего сайта:      
Пояснения к столбцам:
  • Ветер - указаны скорость ветра в м/с - средняя за 10 мин, порывы в срок и между сроками (в фигурных скобках) и направление, откуда дует ветер: С - северный,
  • СВ - северо-восточный, В - восточный, ЮВ - юго-восточный, Ю - южный, ЮЗ - юго-западный, З - западный, СЗ - северо-западный.
  • Видимость - горизонтальная дальность видимости в метрах или километрах. При видимости от 1 до 10 км при отсутствии осадков обычно наблюдается дымка, при ухудшении видимости до 1 км и менее - туман. В сухую погоду видимость может ухудшаться дымом, пылью или мглою.
  • Явления - указаны атмосферные явления, наблюдавшиеся в срок или в последний час перед сроком; фигурными скобками обозначены явления, наблюдавшиеся между сроками (за 1-3 часа до срока); квадратными скобками обозначены град или гололедные отложения с указанием их диаметра в мм.
  • Облачность - указаны через наклонную черту общая и нижняя облачность в баллах и высота нижней границы облаков в метрах; квадратными скобками обозначены формы облаков: Ci - перистые, Cs - перисто-слоистые, Cc - перисто-кучевые, Ac - высококучевые, As - высокослоистые, Sc - слоисто-кучевые, Ns - слоисто-дождевые, Cu - кучевые, Cb - кучево-дождевые. Подробнее классификацию облаков см. в Атласе облаков (PDF).
  • T - Температура воздуха - температура, измеренная на высоте 2 м над землей.
  • Td - Температура точки росы - температура, при понижении до которой содержащийся в воздухе водяной пар достигнет насыщения.
  • f - Относительная влажность воздуха - влажноcть воздуха, измеренная на высоте 2 м над землей.
  • Te - Эффективная температура - температура, которую ощущает одетый по сезону человек в тени. Характеристика душности погоды. При расчете учитывается влияние влажности воздуха и скорости ветра на теплоощущения человека.
  • Tes - Эффективная температура на солнце - температура, которую ощущает человек, с поправкой на солнечный нагрев. Характеристика знойности погоды. Зависит от высоты солнца над горизонтом, облачности и скорости ветра. Ночью, в пасмурную погоду, а также при ветре 12 м/с и более поправка равна нулю.
  • P - Атмосферное давление - приведенное к уровню моря атмосферное давление.
  • Po - Атмосферное давление - измеренное на уровне метеостанции атмосферное давление.
  • Tmin - Минимальная температура - минимум температуры воздуха на высоте 2 м над землей.
  • Tmax - Максимальная температура - максимум температуры воздуха на высоте 2 м над землей.
  • R - Количество осадков - Количество выпавших осадков за период времени, мм. При наведении курсора мыши на число - период времени, за который выпало указанное количество осадков.
  • R24 - Количество осадков - Количество выпавших осадков за 24 часа, мм.
  • S - Снежный покров - Высота снежного покрова, см. При наведении курсора мыши на число - состояние снежного покрова и степень покрытия местности в баллах.